La Mesa, Honduras

1:00 AM CST on March 27, 2017 (GMT -0600)
La Mesa

Weather History for MHLM - April, 2014

Change the Weather History Date:

Monday, April 7, 2014

  Actual Average Record
Temperature  
Mean Temperature 89 °F -  
Max Temperature 105 °F 90 °F 105 °F (2014)
Min Temperature 73 °F 72 °F 68 °F (2002)
Cooling Degree Days 24    
Growing Degree Days 39 (Base 50)    
Moisture  
Dew Point 67 °F    
Average Humidity 53    
Maximum Humidity 94    
Minimum Humidity 12    
Precipitation  
Precipitation 0.00 in 0.05 in - ()
Sea Level Pressure  
Sea Level Pressure 29.74 in    
Wind  
Wind Speed 7 mph ()    
Max Wind Speed 17 mph    
Max Gust Speed -    
Visibility 6.2 miles    
Events      
Averages and records for this station are not official NWS values.
T = Trace of Precipitation, MM = Missing Value Source: Averaged Metar Reports

Daily Weather History Graph

Daily Weather History Graph

Search for Another Location

Airport or City:

Trip Planner

Search our weather history database for the weather conditions in past years. The results will help you decide how hot, cold, wet, or windy it might be!

Date:

Astronomy

Apr. 07, 2014 Rise Set
Actual Time 5:42 AM CST 6:05 PM CST
Civil Twilight 5:21 AM CST 6:26 PM CST
Nautical Twilight 4:55 AM CST 6:52 PM CST
Astronomical Twilight 4:30 AM CST 7:17 PM CST
Moon 12:01 PM CST (4/7) 12:17 AM CST (4/7)
Length of Visible Light 13h 05m
Length of Day
12h 22m
First Quarter, 54% of the Moon is Illuminated
Apr 7
First Quarter
Apr 15
Full
Apr 22
Last Quarter
Apr 29
New
May 6
First Quarter

Hourly Weather History & Observations

Time (CST) Temp. Heat Index Dew Point Humidity Pressure Visibility Wind Dir Wind Speed Gust Speed Precip Events Conditions
12:00 AM 75 °F - 71 °F 85% 29.78 in 6 mi North 4.6 mph - -   Smoke
12:00 AM 75.2 °F - 71.6 °F 89% 29.77 in 6.2 mi North 4.6 mph - N/A   Partly Cloudy
1:00 AM 75.2 °F - 73.4 °F 94% - 6.2 mi Calm Calm - N/A   Partly Cloudy
2:00 AM 75.2 °F - 71.6 °F 89% 29.74 in 6.2 mi South 4.6 mph - N/A   Partly Cloudy
3:00 AM 73 °F - 71 °F 89% 29.74 in 6 mi North 3.5 mph - -   Smoke
3:00 AM 78.8 °F - 73.4 °F 83% 29.74 in 6.2 mi SSE 3.5 mph - N/A   Partly Cloudy
4:00 AM 82.4 °F 85.4 °F 68.0 °F 62% 29.77 in 6.2 mi SSW 11.5 mph - N/A   Partly Cloudy
5:00 AM 82.4 °F 85.4 °F 68.0 °F 62% 29.77 in 6.2 mi SSW 11.5 mph - N/A   Partly Cloudy
6:00 AM 82 °F - 63 °F 43% 29.78 in 6 mi SSW 11.5 mph - -   Smoke
6:00 AM 82.4 °F 83.4 °F 62.6 °F 51% 29.77 in 6.2 mi NNE 11.5 mph - N/A   Clear
7:00 AM 84.2 °F 85.6 °F 64.4 °F 51% 29.80 in 6.2 mi SSW 13.8 mph - N/A   Scattered Clouds
8:00 AM 87.8 °F 88.5 °F 62.6 °F 43% - 6.2 mi SSW 17.3 mph - N/A   Partly Cloudy
9:00 AM 90 °F - 64 °F 32% 29.82 in 9 mi South 15.0 mph - -   Haze
9:00 AM 89.6 °F 91.1 °F 64.4 °F 43% 29.83 in 6.2 mi South 15.0 mph - N/A   Partly Cloudy
10:00 AM 93.2 °F 94.9 °F 64.4 °F 38% 29.80 in 6.2 mi SSW 17.3 mph - N/A   Partly Cloudy
11:00 AM 98.6 °F 101.0 °F 64.4 °F 32% 29.77 in 6.2 mi South 12.7 mph - N/A   Scattered Clouds
12:00 PM 99 °F - 64 °F 22% 29.75 in 9 mi South 11.5 mph - -   Haze
12:00 PM 98.6 °F 101.0 °F 64.4 °F 32% 29.74 in 6.2 mi South 11.5 mph - N/A   Mostly Cloudy
1:00 PM 102.2 °F 104.2 °F 62.6 °F 27% 29.71 in 6.2 mi South 10.4 mph - N/A   Scattered Clouds
2:00 PM 104.0 °F 104.6 °F 59.0 °F 23% 29.68 in 6.2 mi South 8.1 mph - N/A   Scattered Clouds
3:00 PM 105 °F - 56 °F 12% 29.65 in 6 mi South 4.6 mph - -   Smoke
3:00 PM 105.8 °F 104.9 °F 55.4 °F 19% 29.65 in 6.2 mi South 4.6 mph - N/A   Partly Cloudy
4:00 PM 98.6 °F 105.5 °F 69.8 °F 39% 29.65 in 6.2 mi NNE 17.3 mph - N/A   Partly Cloudy
5:00 PM 93.2 °F 98.8 °F 69.8 °F 46% 29.65 in 6.2 mi North 12.7 mph - N/A   Partly Cloudy
6:00 PM 90 °F - 68 °F 39% 29.67 in 6 mi North 9.2 mph - -   Smoke
6:00 PM 89.6 °F 93.4 °F 68.0 °F 49% 29.65 in 6.2 mi North 9.2 mph - N/A   Partly Cloudy
7:00 PM 86.0 °F 90.4 °F 69.8 °F 58% 29.68 in 5.0 mi NNW 9.2 mph - N/A   Partly Cloudy
8:00 PM 84.2 °F 89.6 °F 71.6 °F 66% 29.71 in 5.0 mi NNW 5.8 mph - N/A   Partly Cloudy
9:00 PM 82 °F - 69 °F 57% 29.77 in 5 mi North 4.6 mph - -   Haze
9:00 PM 82.4 °F 86.3 °F 69.8 °F 66% 29.77 in 6.2 mi North 4.6 mph - N/A   Partly Cloudy
10:00 PM 82.4 °F 87.2 °F 71.6 °F 70% 29.77 in 5.0 mi ESE 4.6 mph - N/A   Partly Cloudy
11:00 PM 78.8 °F - 69.8 °F 74% 29.80 in 5.0 mi Calm Calm - N/A   Partly Cloudy